Regional Weather Roundup
Issued by NWS

Home | Current Version | Previous Version | Graphics & Text | Print | Product List | Glossary On
Versions: 1 2 3 4 5 6 7 8 9 10 11 12 13 14 15 16 17 18 19 20 21 22 23 24 25 26 27 28 29 30 31 32 33 34 35 36 37 38 39 40 41 42 43 44 45 46 47 48 49 50
000
ASUS43 KMPX 160901
RWRMN
WEATHER ROUNDUP FOR MINNESOTA
NATIONAL WEATHER SERVICE TWIN CITIES/CHANHASSEN MN
400 AM CDT TUE SEP 16 2014


NOTE: "FAIR" INDICATES FEW OR NO CLOUDS BELOW 12,000 FEET WITH NO
SIGNIFICANT WEATHER AND/OR OBSTRUCTIONS TO VISIBILITY. N/A MEANS
CURRENT SKY AND/OR WEATHER CONDITIONS ARE NOT AVAILABLE.

MNZ060>063-068>070-161000-
   Twin Cities Metro

CITY           SKY/WX    TMP DP  RH WIND       PRES   REMARKS
TWIN CITIES    CLEAR     45  40  82 S3        30.21S
ST PAUL        CLEAR     42  40  92 CALM      30.22S
CRYSTAL        CLEAR     44  41  89 CALM      30.19S
BLAINE         CLEAR     43  43 100 SW5       30.19F
LAKEVILLE      CLEAR     41  39  93 SW3       30.21S
EDEN PRAIRIE   CLEAR     42  40  92 SW3       30.20S
SOUTH ST PAUL  CLEAR     43  40  88 CALM      30.20F
LAKE ELMO      FAIR      39  39 100 CALM      30.21S
$$
MNZ001>005-007-008-013>017-022>024-027-028-161000-
   Northwest Minnesota

CITY           SKY/WX    TMP DP  RH WIND       PRES   REMARKS
BEMIDJI        CLEAR     44  38  78 SW7       30.09S
HALLOCK        CLEAR     41  37  87 S5        30.01S
ROSEAU         PTCLDY    50  43  76 SW10      30.00S
WARROAD        CLOUDY    48  41  76 SW9G16    30.01R
THIEF RVR FALL CLEAR     45  37  76 SW9       30.07S
CROOKSTON      CLEAR     43  39  87 S7        30.08S
FOSSTON        CLEAR     39  36  87 S9        30.10S
DETROIT LAKES  CLEAR     46  37  71 SW8       30.13F
MOORHEAD       CLEAR     45  41  87 S5        30.13S
PARK RAPIDS    CLEAR     41  36  82 SW8       30.12F
MAHNOMEN       FAIR      40  36  87 S7        30.11S
$$
MNZ006-009>011-018-025>026-161000-
   North Central Minnesota

CITY           SKY/WX    TMP DP  RH WIND       PRES   REMARKS
BAUDETTE       CLEAR     45  39  79 SW9       30.00F
FLAG ISLAND    CLOUDY    48  39  71 SW15      29.95S
INTL FALLS     CLEAR     39  37  92 SW6       30.01F
WASKISH        CLEAR     52  45  76 CALM      30.05S
BIG FORK       CLEAR     46  39  76 SW8       30.07F
LONGVILLE      CLEAR     45  39  81 SW5       30.11S
GRAND RAPIDS   CLEAR     48  34  57 SW8       30.10S
CRANE LAKE     CLEAR     43  39  87 S5        30.04F
ORR            CLEAR     39  36  87 CALM      30.03S
COOK           CLEAR     45  37  76 SW5       30.06F
WALKER         FAIR      45  38  76 SW7       30.10F
$$
MNZ012-019>021-037-161000-
   Northeast Minnesota

CITY           SKY/WX    TMP DP  RH WIND       PRES   REMARKS
DULUTH         CLEAR     46  36  68 W12       30.10F
ELY            CLEAR     43  37  81 SW6       30.05F
HIBBING        CLEAR     31  29  92 CALM      30.09S
EVELETH        CLEAR     36  34  93 CALM      30.09F
DULUTH HARBOR  CLEAR     45  39  81 SW14      30.12F
TWO HARBORS    CLEAR     39  34  81 W3        30.08F
SILVER BAY     CLEAR     32  32 100 CALM      30.07F
GRAND MARAIS     N/A     47  38  71 W3        30.05F
G MARAIS ARPRT CLEAR     41  34  75 SW5       30.05F
$$
MNZ029>031-032-039>041-046>048-054>057-064-161000-
   West Central Minnesota

CITY           SKY/WX    TMP DP  RH WIND       PRES   REMARKS
FERGUS FALLS   CLEAR     43  34  70 S6        30.16F
WHEATON        CLEAR     39  36  87 S7        30.17F
MORRIS         CLEAR     39  36  87 S6        30.16F
ALEXANDRIA     CLEAR     45  35  68 SW10      30.18F
ELBOW LAKE     FAIR      38  35  89 S7        30.15F
WADENA         CLEAR     39  34  81 SW5       30.14S
GLENWOOD       CLEAR     39  36  87 SW6       30.18F
APPLETON       CLEAR     39  36  87 CALM      30.18F
BENSON         CLEAR     39  36  87 S3        30.19S
ORTONVILLE     CLEAR     43  36  75 S3        30.17F
MADISON        CLEAR     41  39  93 S3        30.18F
WILLMAR        FAIR      39  36  87 CALM      30.21S
$$
MNZ033>034-036-042>043-049>051-058-059-161000-
   Central Minnesota

CITY           SKY/WX    TMP DP  RH WIND       PRES   REMARKS
ST CLOUD       CLEAR     40  37  89 S3        30.18F
SAUK CENTRE    FAIR      41  35  79 SW6       30.18S
PAYNESVILLE    CLEAR     37  37  99 S3        30.19F
AITKIN         CLEAR     48  37  66 SW8       30.12F
PINE RIVER     CLEAR     39  36  87 CALM      30.16F
BRAINERD       CLEAR     39  35  86 S6        30.15F
STAPLES        CLEAR     43  36  75 SW5       30.14F
LONG PRAIRIE   FAIR      41  36  81 S7        30.17F
LITTLE FALLS   CLEAR     37  34  87 CALM      30.17S
LITCHFIELD     CLEAR     45  41  87 CALM      30.20F
BUFFALO        CLEAR     39  37  91 CALM      30.21S
MAPLE LAKE     CLEAR     40  39  99 CALM      30.20F
$$
MNZ037-044-045-052-053-161000-
   East Central Minnesota

CITY           SKY/WX    TMP DP  RH WIND       PRES   REMARKS
PRINCETON      CLEAR     37  37 100 CALM      30.18F
MORA           CLEAR     36  34  93 CALM      30.19S
CAMBRIDGE      CLEAR     41  34  75 CALM      30.16F
RUSH CITY      CLEAR     38  36  94 CALM      30.18S
MOOSE LAKE     CLEAR     34  32  93 W3        30.13S
HINCKLEY       FAIR      37  37 100 CALM      30.16F
CLOQUET        CLEAR     46  37  71 SW9       30.11F
MCGREGOR       CLEAR     43  36  75 SW6       30.14S
$$
MNZ071>073-080-081-089-090-097-098-161000-
   Southwest Minnesota

CITY           SKY/WX    TMP DP  RH WIND       PRES   REMARKS
MONTEVIDEO     CLEAR     43  36  75 SW6       30.20F
GRANITE FALLS  CLEAR     37  35  95 S3        30.21F
CANBY          CLEAR     47  39  74 SW5       30.20F
MARSHALL       CLEAR     39  36  87 SW7       30.19F
REDWOOD FALLS  CLEAR     43  37  79 SW7       30.20F
OLIVIA         CLEAR     39  36  87 SW5       30.20F
PIPESTONE      CLEAR     43  37  81 CALM      30.21F
WINDOM         CLEAR     43  39  87 S3        30.23F
WORTHINGTON    CLEAR     39  37  93 SW5       30.23F
JACKSON        CLEAR     41  37  87 SW5       30.24F
TRACY          CLEAR     44  41  87 CALM      30.21F
SLAYTON        CLEAR     41  39  93 CALM      30.22F
$$
MNZ065>067-074>077-082>085-091>093-161000-
   South Central Minnesota

CITY           SKY/WX    TMP DP  RH WIND       PRES   REMARKS
MANKATO        CLEAR     43  36  75 S3        30.22S
NEW ULM        CLEAR     39  39 100 SW3       30.21F
ST JAMES       CLEAR     39  37  93 CALM      30.23F
FAIRMONT       CLEAR     43  37  81 SW6       30.23F
GLENCOE        CLEAR     40  37  89 CALM      30.20S
FARIBAULT      CLEAR     39  34  81 CALM      30.22S
OWATONNA       CLEAR     39  37  93 CALM      30.22F
WASECA         CLEAR     36  32  87 CALM      30.24F
ALBERT LEA     CLEAR     43  43 100 CALM      30.23S
$$
MNZ078>079-086>088-094>096-161000-
   Southeast Minnesota

CITY           SKY/WX    TMP DP  RH WIND       PRES   REMARKS
ROCHESTER      CLEAR     40  36  86 SW7       30.23S
RED WING       CLEAR     37  36  93 CALM      30.21S
STANTON        CLEAR     39  38  93 S5        30.20F
DODGE CENTER   CLEAR     39  37  93 SW5       30.22S
WINONA         PTCLDY    41  39  93 CALM      30.23R
AUSTIN           N/A     37  37 100 CALM      30.23S FOG
PRESTON        CLEAR     40  40 100 W3        30.23S
$$
ABBREVIATIONS USED IN REMARKS
   TC - TEMPERATURES IN CELSIUS
  WCI - WIND CHILL INDEX
   HX - HEAT INDEX
  VSB - VISIBILITY
$$


USA.gov is the U.S. government's official web portal to all federal, state and local government web resources and services.